Location: Chiroubles
(46.1812°N, 4.6660°E)
Time: 16:26:23
(UTC+00:00)

Transit 4A - Pass Details

Date: 04 December 2020
Orbit: 864 x 980 km, 66.8° (Epoch: 26 January)

Event Time Altitude Azimuth Distance (km) Brightness Sun altitude
Rises 05:04:48 0° 168° (SSE) 3,616 11.3 -20.4°
Reaches altitude 10° 05:07:52 10° 153° (SSE) 2,692 10.8 -19.9°
Maximum altitude 05:12:33 22° 105° (ESE) 1,975 10.5 -19.1°
Drops below altitude 10° 05:17:16 10° 57° (ENE) 2,735 10.9 -18.3°
Sets 05:20:25 0° 44° (NE) 3,691 11.4 -17.8°
